Location: El Limón
(10.3059°N, 67.6321°W)
Time: 13:40:28
(UTC+00:00)

Nadezhda 2 Rocket - Pass Details

Date: 23 December 2025
Orbit: 946 x 1011 km, 83.0° (Epoch: 12 January)

Event Time Altitude Azimuth Distance (km) Brightness Sun altitude
Rises 10:18:29 0° 181° (S) 3,713 7.8 -6.6°
Reaches altitude 10° 10:21:01 10° 180° (S) 2,757 7.2 -6.0°
Maximum altitude 10:27:21 82° 93° (E) 996 4.7 -4.6°
Drops below altitude 10° 10:33:35 10° 6° (N) 2,711 6.7 -3.2°
Sets 10:36:04 0° 5° (N) 3,649 7.3 -2.6°
